,,,PA_Meas_PMT16A,,PR_Meas_QMR101_102,,RH_Meas_QMH101,,SR_Meas_QMS101,,TA_Meas_QMH101,,GenWind,,GenWind,
date,time,status,PA,status,PR,status,RH,status,SR,status,TA,status,DirAvg,status,SpdAvg,
2012-06-15, 00:00:04,VALID,1004.97,VALID,0,VALID,88.9833,VALID,0,VALID,24.9885,VALID,45,VALID,0.176953,
2012-06-15, 00:01:04,VALID,1004.94,VALID,0,VALID,88.6705,VALID,0.0815089,VALID,24.9671,VALID,45,VALID,0,
2012-06-15, 00:02:04,VALID,1004.95,VALID,0,VALID,88.6705,VALID,0.0815089,VALID,24.9476,VALID,45,VALID,0.0644531,
2012-06-15, 00:03:04,VALID,1004.91,VALID,0,VALID,88.8231,VALID,0.0815089,VALID,24.9457,VALID,45,VALID,0.180469,
2012-06-15, 00:04:04,VALID,1004.9,VALID,0,VALID,88.8917,VALID,0,VALID,24.9476,VALID,45,VALID,0.275391,
2012-06-15, 00:05:04,VALID,1004.88,VALID,0,VALID,88.9527,VALID,0.0815089,VALID,24.9495,VALID,45,VALID,0.482422,
2012-06-15, 00:06:04,VALID,1004.88,VALID,0,VALID,89.296,VALID,0.0815089,VALID,24.9282,VALID,45,VALID,0.515625,
2012-06-15, 00:07:04,VALID,1004.86,VALID,0,VALID,89.4257,VALID,0,VALID,24.93,VALID,45,VALID,0.341016,
2012-06-15, 00:08:04,VALID,1004.88,VALID,0,VALID,89.5631,VALID,0.0815089,VALID,24.9087,VALID,45,VALID,0.298047,
2012-06-15, 00:09:04,VALID,1004.88,VALID,0,VALID,89.7767,VALID,0,VALID,24.8911,VALID,45,VALID,0.406641,
2012-06-15, 00:10:04,VALID,1004.86,VALID,0,VALID,89.8987,VALID,0,VALID,24.8716,VALID,45,VALID,0.391016,
2012-06-15, 00:11:04,VALID,1004.85,VALID,0,VALID,90.0208,VALID,0,VALID,24.8522,VALID,45,VALID,0.464063,
2012-06-15, 00:12:04,VALID,1004.87,VALID,0,VALID,90.1352,VALID,0,VALID,24.8327,VALID,45,VALID,0.278516,
2012-06-15, 00:13:04,VALID,1004.88,VALID,0,VALID,90.1886,VALID,0,VALID,24.8132,VALID,45,VALID,0.285547,
2012-06-15, 00:14:04,VALID,1004.88,VALID,0,VALID,90.2039,VALID,0,VALID,24.8151,VALID,45,VALID,0.021875,
2012-06-15, 00:15:04,VALID,1004.86,VALID,0,VALID,90.1886,VALID,0,VALID,24.7956,VALID,45,VALID,0.110547,
2012-06-15, 00:16:04,VALID,1004.87,VALID,0,VALID,90.1429,VALID,0,VALID,24.7743,VALID,45,VALID,0.153125,
2012-06-15, 00:17:04,VALID,1004.86,VALID,0,VALID,89.8682,VALID,0,VALID,24.7548,VALID,45,VALID,0.399219,
2012-06-15, 00:18:04,VALID,1004.83,VALID,0,VALID,89.8453,VALID,0,VALID,24.7353,VALID,45,VALID,0.433203,
2012-06-15, 00:19:04,VALID,1004.82,VALID,0,VALID,89.7843,VALID,0,VALID,24.7159,VALID,45,VALID,0.351172,
2012-06-15, 00:20:04,VALID,1004.76,VALID,0,VALID,89.8148,VALID,0,VALID,24.675,VALID,45,VALID,0.294531,
2012-06-15, 00:21:04,VALID,1004.78,VALID,0,VALID,89.9216,VALID,0,VALID,24.7159,VALID,45,VALID,0.279687,
2012-06-15, 00:22:04,VALID,1004.76,VALID,0,VALID,89.8148,VALID,0,VALID,24.7159,VALID,45,VALID,0.300781,
2012-06-15, 00:23:04,VALID,1004.76,VALID,0,VALID,89.8148,VALID,0,VALID,24.7159,VALID,45,VALID,0.359375,
2012-06-15, 00:24:04,VALID,1004.73,VALID,0,VALID,89.9445,VALID,0.0815089,VALID,24.714,VALID,45,VALID,0.241016,
2012-06-15, 00:25:04,VALID,1004.73,VALID,0,VALID,90.0437,VALID,0.0815089,VALID,24.714,VALID,45,VALID,0.339844,
2012-06-15, 00:26:04,VALID,1004.7,VALID,0,VALID,90.0742,VALID,0.0815089,VALID,24.6945,VALID,45,VALID,0.310156,
2012-06-15, 00:27:04,VALID,1004.69,VALID,0,VALID,90.2497,VALID,0.0815089,VALID,24.6537,VALID,45,VALID,0.335156,
2012-06-15, 00:28:04,VALID,1004.68,VALID,0,VALID,90.2725,VALID,0.0815089,VALID,24.6732,VALID,45,VALID,0.345313,
2012-06-15, 00:29:04,VALID,1004.65,VALID,0,VALID,90.3641,VALID,0.0815089,VALID,24.6556,VALID,45,VALID,0.39375,
2012-06-15, 00:30:04,VALID,1004.64,VALID,0,VALID,90.5243,VALID,0,VALID,24.6166,VALID,45,VALID,0.332422,
2012-06-15, 00:31:04,VALID,1004.63,VALID,0,VALID,90.593,VALID,0,VALID,24.5972,VALID,45,VALID,0.425,
2012-06-15, 00:32:04,VALID,1004.62,VALID,0,VALID,90.7837,VALID,0.0815089,VALID,24.5777,VALID,45,VALID,0.532031,
2012-06-15, 00:33:04,VALID,1004.61,VALID,0,VALID,91.0278,VALID,0.0815089,VALID,24.5777,VALID,45,VALID,0.381641,
2012-06-15, 00:34:04,VALID,1004.59,VALID,0,VALID,91.1499,VALID,0.0815089,VALID,24.5582,VALID,45,VALID,0.384766,
2012-06-15, 00:35:04,VALID,1004.58,VALID,0,VALID,91.2338,VALID,0.0815089,VALID,24.5582,VALID,45,VALID,0.266797,
2012-06-15, 00:36:04,VALID,1004.62,VALID,0,VALID,91.2872,VALID,0.0815089,VALID,24.5388,VALID,45,VALID,0.286719,
2012-06-15, 00:37:04,VALID,1004.58,VALID,0,VALID,91.2948,VALID,0.0815089,VALID,24.5388,VALID,45,VALID,0.394531,
2012-06-15, 00:38:04,VALID,1004.57,VALID,0,VALID,91.2643,VALID,0.0815089,VALID,24.5193,VALID,45,VALID,0.463281,
2012-06-15, 00:39:04,VALID,1004.59,VALID,0,VALID,91.3177,VALID,0,VALID,24.5212,VALID,45,VALID,0.349609,
2012-06-15, 00:40:04,VALID,1004.55,VALID,0,VALID,91.3635,VALID,0,VALID,24.4998,VALID,45,VALID,0.293359,
2012-06-15, 00:41:04,VALID,1004.52,VALID,0,VALID,91.4169,VALID,0,VALID,24.5212,VALID,45,VALID,0.541406,
2012-06-15, 00:42:04,VALID,1004.53,VALID,0,VALID,91.4398,VALID,0,VALID,24.5212,VALID,45,VALID,0.342969,
2012-06-15, 00:43:04,VALID,1004.53,VALID,0,VALID,91.5313,VALID,0,VALID,24.4998,VALID,45,VALID,0.236719,
2012-06-15, 00:44:04,VALID,1004.5,VALID,0,VALID,91.5542,VALID,0,VALID,24.5017,VALID,45,VALID,0.135156,
2012-06-15, 00:45:04,VALID,1004.52,VALID,0,VALID,91.5466,VALID,0,VALID,24.4822,VALID,45,VALID,0,
2012-06-15, 00:46:04,VALID,1004.49,VALID,0,VALID,91.5466,VALID,0,VALID,24.4628,VALID,45,VALID,0.308594,
2012-06-15, 00:47:04,VALID,1004.49,VALID,0,VALID,91.5923,VALID,0,VALID,24.4841,VALID,45,VALID,0.322266,
2012-06-15, 00:48:04,VALID,1004.47,VALID,0,VALID,91.6229,VALID,0,VALID,24.4433,VALID,45,VALID,0.412891,
2012-06-15, 00:49:04,VALID,1004.43,VALID,0,VALID,91.6229,VALID,0,VALID,24.4433,VALID,45,VALID,0.334766,
2012-06-15, 00:50:04,VALID,1004.45,VALID,0,VALID,91.661,VALID,0,VALID,24.4628,VALID,45,VALID,0.268359,
2012-06-15, 00:51:04,VALID,1004.45,VALID,0,VALID,91.722,VALID,0,VALID,24.4609,VALID,45,VALID,0.233984,
2012-06-15, 00:52:04,VALID,1004.41,VALID,0,VALID,91.6839,VALID,0.0815089,VALID,24.4609,VALID,45,VALID,0.276953,
2012-06-15, 00:53:04,VALID,1004.4,VALID,0,VALID,91.6686,VALID,0,VALID,24.4628,VALID,45,VALID,0.214062,
2012-06-15, 00:54:04,VALID,1004.38,VALID,0,VALID,91.5618,VALID,0,VALID,24.4646,VALID,45,VALID,0.410156,
2012-06-15, 00:55:04,VALID,1004.38,VALID,0,VALID,91.5161,VALID,0,VALID,24.4433,VALID,45,VALID,0.451562,
2012-06-15, 00:56:04,VALID,1004.38,VALID,0,VALID,91.5237,VALID,0,VALID,24.4822,VALID,45,VALID,0.369141,
2012-06-15, 00:57:04,VALID,1004.39,VALID,0,VALID,91.4474,VALID,0,VALID,24.4822,VALID,45,VALID,0.442187,
2012-06-15, 00:58:04,VALID,1004.34,VALID,0,VALID,91.5313,VALID,0,VALID,24.5035,VALID,45,VALID,0.53125,
2012-06-15, 00:59:04,VALID,1004.34,VALID,0,VALID,91.5771,VALID,0,VALID,24.523,VALID,45,VALID,0.417578,
2012-06-15, 01:00:04,VALID,1004.34,VALID,0,VALID,91.6763,VALID,0,VALID,24.4804,VALID,45,VALID,0.369922,
2012-06-15, 01:01:04,VALID,1004.33,VALID,0,VALID,91.6763,VALID,0,VALID,24.4822,VALID,45,VALID,0.537109,
2012-06-15, 01:02:04,VALID,1004.3,VALID,0,VALID,91.7449,VALID,0,VALID,24.4433,VALID,45,VALID,0.560156,
2012-06-15, 01:03:04,VALID,1004.3,VALID,0,VALID,91.7525,VALID,0,VALID,24.4433,VALID,45,VALID,0.396484,
2012-06-15, 01:04:04,VALID,1004.27,VALID,0,VALID,91.8059,VALID,0,VALID,24.4238,VALID,45,VALID,0.463672,
2012-06-15, 01:05:04,VALID,1004.28,VALID,0,VALID,91.7983,VALID,0,VALID,24.4043,VALID,45,VALID,0.475391,
2012-06-15, 01:06:04,VALID,1004.25,VALID,0,VALID,91.8212,VALID,0,VALID,24.4043,VALID,45,VALID,0.503906,
2012-06-15, 01:07:04,VALID,1004.25,VALID,0,VALID,91.7297,VALID,0,VALID,24.383,VALID,45,VALID,0.519141,
2012-06-15, 01:08:04,VALID,1004.22,VALID,0,VALID,91.7449,VALID,0,VALID,24.4043,VALID,45,VALID,0.493359,
2012-06-15, 01:09:04,VALID,1004.2,VALID,0,VALID,91.7525,VALID,0,VALID,24.4043,VALID,45,VALID,0.547656,
2012-06-15, 01:10:04,VALID,1004.15,VALID,0,VALID,91.8059,VALID,0,VALID,24.4062,VALID,45,VALID,0.473828,
2012-06-15, 01:11:04,VALID,1004.14,VALID,0,VALID,91.8212,VALID,0,VALID,24.4043,VALID,45,VALID,0.494141,
2012-06-15, 01:12:04,VALID,1004.11,VALID,0,VALID,91.8746,VALID,0,VALID,24.4062,VALID,45,VALID,0.416406,
2012-06-15, 01:13:04,VALID,1004.09,VALID,0,VALID,91.8746,VALID,0,VALID,24.4062,VALID,45,VALID,0.472266,
2012-06-15, 01:14:04,VALID,1004.09,VALID,0,VALID,91.8975,VALID,0,VALID,24.3867,VALID,44,VALID,0.471094,
2012-06-15, 01:15:04,VALID,1004.05,VALID,0,VALID,91.8746,VALID,0,VALID,24.3654,VALID,30,VALID,0.4375,
2012-06-15, 01:16:04,VALID,1004.03,VALID,0,VALID,91.867,VALID,0,VALID,24.3849,VALID,15,VALID,0.58125,
2012-06-15, 01:17:04,VALID,1004,VALID,0,VALID,91.7983,VALID,0,VALID,24.4043,VALID,355,VALID,0.410547,
2012-06-15, 01:18:04,VALID,1004.01,VALID,0,VALID,91.6991,VALID,0,VALID,24.4238,VALID,355,VALID,0.509375,
2012-06-15, 01:19:04,VALID,1003.98,VALID,0,VALID,91.6457,VALID,0,VALID,24.4451,VALID,350,VALID,0.6375,
2012-06-15, 01:20:04,VALID,1003.96,VALID,0,VALID,91.6152,VALID,0,VALID,24.4433,VALID,349,VALID,0.671094,
2012-06-15, 01:21:04,VALID,1003.97,VALID,0,VALID,91.5847,VALID,0,VALID,24.4433,VALID,349,VALID,0.637891,
2012-06-15, 01:22:04,VALID,1003.96,VALID,0,VALID,91.5466,VALID,0,VALID,24.4628,VALID,349,VALID,0.404297,
2012-06-15, 01:23:04,VALID,1003.95,VALID,0,VALID,91.5542,VALID,0,VALID,24.4414,VALID,349,VALID,0.411719,
2012-06-15, 01:24:04,VALID,1003.97,VALID,0,VALID,91.4703,VALID,0,VALID,24.4646,VALID,349,VALID,0.0675781,
2012-06-15, 01:25:04,VALID,1003.96,VALID,0,VALID,91.4169,VALID,0,VALID,24.4646,VALID,350,VALID,0.505078,
2012-06-15, 01:26:04,VALID,1003.99,VALID,0,VALID,91.0583,VALID,0,VALID,24.4628,VALID,11,VALID,0.541406,
2012-06-15, 01:27:04,VALID,1003.99,VALID,0,VALID,90.0894,VALID,0,VALID,24.5212,VALID,10,VALID,1.29805,
2012-06-15, 01:28:04,VALID,1004,VALID,0,VALID,89.2655,VALID,0,VALID,24.6556,VALID,28,VALID,0.884375,
2012-06-15, 01:29:04,VALID,1003.99,VALID,0,VALID,88.0296,VALID,0,VALID,24.8327,VALID,9,VALID,0.4,
2012-06-15, 01:30:04,VALID,1003.96,VALID,0,VALID,86.9921,VALID,0,VALID,24.9495,VALID,17,VALID,1.21289,
2012-06-15, 01:31:04,VALID,1003.93,VALID,0,VALID,86.1072,VALID,0,VALID,25.1248,VALID,13,VALID,0.669922,
2012-06-15, 01:32:04,VALID,1003.92,VALID,0,VALID,85.2451,VALID,0,VALID,25.263,VALID,5,VALID,0.800781,
2012-06-15, 01:33:04,VALID,1003.85,VALID,0,VALID,84.528,VALID,0,VALID,25.3195,VALID,11,VALID,0.831641,
2012-06-15, 01:34:04,VALID,1003.85,VALID,0,VALID,84.2152,VALID,0,VALID,25.4363,VALID,1,VALID,1.09492,
2012-06-15, 01:35:04,VALID,1003.83,VALID,0,VALID,83.5515,VALID,0,VALID,25.5921,VALID,16,VALID,1.01719,
2012-06-15, 01:36:04,VALID,1003.79,VALID,0,VALID,83.2006,VALID,0,VALID,25.6116,VALID,1,VALID,1.21172,
2012-06-15, 01:37:04,VALID,1003.78,VALID,0,VALID,82.1478,VALID,0,VALID,25.67,VALID,9,VALID,1.61445,
2012-06-15, 01:38:04,VALID,1003.78,VALID,0,VALID,82.3843,VALID,0,VALID,25.7674,VALID,360,VALID,1.09023,
2012-06-15, 01:39:04,VALID,1003.75,VALID,0,VALID,81.5222,VALID,0,VALID,25.8259,VALID,360,VALID,1.57773,
2012-06-15, 01:40:04,VALID,1003.75,VALID,0,VALID,81.9113,VALID,0,VALID,25.8648,VALID,16,VALID,0.641797,
2012-06-15, 01:41:04,VALID,1003.74,VALID,0,VALID,82.2393,VALID,0,VALID,25.8453,VALID,24,VALID,0.522266,
2012-06-15, 01:42:04,VALID,1003.71,VALID,0,VALID,81.8655,VALID,0,VALID,25.8064,VALID,16,VALID,1.2332,
2012-06-15, 01:43:04,VALID,1003.68,VALID,0,VALID,82.0181,VALID,0,VALID,25.8259,VALID,20,VALID,0.844531,
2012-06-15, 01:44:04,VALID,1003.66,VALID,0,VALID,82.0105,VALID,0,VALID,25.8259,VALID,25,VALID,0.762109,
2012-06-15, 01:45:04,VALID,1003.64,VALID,0,VALID,82.0791,VALID,0,VALID,25.8278,VALID,25,VALID,0.586328,
2012-06-15, 01:46:04,VALID,1003.63,VALID,0,VALID,81.9037,VALID,0,VALID,25.8278,VALID,359,VALID,0.896484,
2012-06-15, 01:47:04,VALID,1003.59,VALID,0,VALID,81.7511,VALID,0,VALID,25.8453,VALID,15,VALID,1.19453,
2012-06-15, 01:48:04,VALID,1003.56,VALID,0,VALID,81.774,VALID,0,VALID,25.8648,VALID,341,VALID,0.547266,
2012-06-15, 01:49:04,VALID,1003.56,VALID,0,VALID,81.7816,VALID,0,VALID,25.8453,VALID,341,VALID,0.506641,
2012-06-15, 01:50:04,VALID,1003.53,VALID,0,VALID,81.7129,VALID,0,VALID,25.8259,VALID,341,VALID,0.641406,
2012-06-15, 01:51:04,VALID,1003.49,VALID,0,VALID,81.9113,VALID,0,VALID,25.8259,VALID,342,VALID,0.307813,
2012-06-15, 01:52:04,VALID,1003.49,VALID,0,VALID,82.4224,VALID,0,VALID,25.7869,VALID,344,VALID,0.108984,
2012-06-15, 01:53:04,VALID,1003.47,VALID,0,VALID,82.8496,VALID,0,VALID,25.748,VALID,344,VALID,0.0941406,
2012-06-15, 01:54:04,VALID,1003.48,VALID,0,VALID,83.0175,VALID,0,VALID,25.6895,VALID,328,VALID,0.426172,
2012-06-15, 01:55:04,VALID,1003.5,VALID,0,VALID,83.4294,VALID,0,VALID,25.6116,VALID,324,VALID,0.244531,
2012-06-15, 01:56:04,VALID,1003.48,VALID,0,VALID,83.8643,VALID,0,VALID,25.5337,VALID,296,VALID,0.0421875,
2012-06-15, 01:57:04,VALID,1003.47,VALID,0,VALID,83.9177,VALID,0,VALID,25.4772,VALID,311,VALID,0.428516,
2012-06-15, 01:58:04,VALID,1003.46,VALID,0,VALID,84.4136,VALID,0,VALID,25.4188,VALID,311,VALID,0.05625,
2012-06-15, 01:59:04,VALID,1003.45,VALID,0,VALID,84.6348,VALID,0,VALID,25.3584,VALID,311,VALID,0,
2012-06-15, 02:00:04,VALID,1003.44,VALID,0,VALID,84.9247,VALID,0,VALID,25.3409,VALID,311,VALID,0.319531,
2012-06-15, 02:01:04,VALID,1003.42,VALID,0,VALID,85.2833,VALID,0,VALID,25.263,VALID,311,VALID,0.386328,
2012-06-15, 02:02:04,VALID,1003.42,VALID,0,VALID,85.6189,VALID,0,VALID,25.2046,VALID,311,VALID,0.4625,
2012-06-15, 02:03:04,VALID,1003.42,VALID,0,VALID,85.9546,VALID,0,VALID,25.1248,VALID,311,VALID,0.460156,
2012-06-15, 02:04:04,VALID,1003.39,VALID,0,VALID,86.1606,VALID,0,VALID,25.0663,VALID,311,VALID,0.382031,
2012-06-15, 02:05:04,VALID,1003.38,VALID,0,VALID,86.336,VALID,0,VALID,25.0488,VALID,311,VALID,0.344922,
2012-06-15, 02:06:04,VALID,1003.37,VALID,0,VALID,86.5802,VALID,0,VALID,24.9885,VALID,311,VALID,0.536719,
2012-06-15, 02:07:04,VALID,1003.38,VALID,0,VALID,86.5802,VALID,0,VALID,24.9709,VALID,350,VALID,0.820313,
2012-06-15, 02:08:04,VALID,1003.38,VALID,0,VALID,86.3437,VALID,0,VALID,24.969,VALID,357,VALID,0.85625,
2012-06-15, 02:09:04,VALID,1003.34,VALID,0,VALID,86.3742,VALID,0,VALID,25.0079,VALID,356,VALID,0.572266,
2012-06-15, 02:10:04,VALID,1003.32,VALID,0,VALID,86.3284,VALID,0,VALID,25.0274,VALID,356,VALID,0.526563,
2012-06-15, 02:11:04,VALID,1003.32,VALID,0,VALID,86.3971,VALID,0,VALID,25.0488,VALID,356,VALID,0.445703,
2012-06-15, 02:12:04,VALID,1003.3,VALID,0,VALID,86.5496,VALID,0,VALID,25.0293,VALID,357,VALID,0.340234,
2012-06-15, 02:13:04,VALID,1003.26,VALID,0,VALID,85.8936,VALID,0,VALID,25.0469,VALID,16,VALID,0.371094,
2012-06-15, 02:14:04,VALID,1003.28,VALID,0,VALID,85.68,VALID,0,VALID,25.1053,VALID,11,VALID,0.124609,
2012-06-15, 02:15:04,VALID,1003.29,VALID,0,VALID,85.535,VALID,0,VALID,25.1461,VALID,11,VALID,0.0164062,
2012-06-15, 02:16:04,VALID,1003.27,VALID,0,VALID,85.3061,VALID,0,VALID,25.1656,VALID,357,VALID,0.695313,
2012-06-15, 02:17:04,VALID,1003.27,VALID,0,VALID,85.0239,VALID,0,VALID,25.2046,VALID,360,VALID,0.249219,
2012-06-15, 02:18:04,VALID,1003.25,VALID,0,VALID,85.1688,VALID,0,VALID,25.2027,VALID,357,VALID,0.452344,
2012-06-15, 02:19:04,VALID,1003.26,VALID,0,VALID,85.2375,VALID,0,VALID,25.2027,VALID,351,VALID,0.329297,
2012-06-15, 02:20:04,VALID,1003.27,VALID,0,VALID,85.5045,VALID,0,VALID,25.2027,VALID,351,VALID,0.512891,
2012-06-15, 02:21:04,VALID,1003.25,VALID,0,VALID,85.5198,VALID,0,VALID,25.2046,VALID,346,VALID,0.514063,
2012-06-15, 02:22:04,VALID,1003.26,VALID,0,VALID,85.6723,VALID,0,VALID,25.1442,VALID,335,VALID,0.149609,
2012-06-15, 02:23:04,VALID,1003.26,VALID,0,VALID,85.8478,VALID,0,VALID,25.1267,VALID,335,VALID,0.000390625,
2012-06-15, 02:24:04,VALID,1003.27,VALID,0,VALID,86.0233,VALID,0,VALID,25.0858,VALID,335,VALID,0,
2012-06-15, 02:25:04,VALID,1003.24,VALID,0,VALID,86.2369,VALID,0,VALID,25.0469,VALID,335,VALID,0.196484,
2012-06-15, 02:26:04,VALID,1003.25,VALID,0,VALID,86.3818,VALID,0,VALID,25.0079,VALID,330,VALID,0.243359,
2012-06-15, 02:27:04,VALID,1003.25,VALID,0,VALID,86.6565,VALID,0,VALID,24.969,VALID,345,VALID,0.704687,
2012-06-15, 02:28:04,VALID,1003.24,VALID,0,VALID,86.7175,VALID,0,VALID,24.9885,VALID,354,VALID,0.598047,
2012-06-15, 02:29:04,VALID,1003.24,VALID,0,VALID,86.4352,VALID,0,VALID,25.0079,VALID,21,VALID,0.326953,
2012-06-15, 02:30:04,VALID,1003.22,VALID,0,VALID,86.3971,VALID,0,VALID,25.0488,VALID,20,VALID,0.480469,
2012-06-15, 02:31:04,VALID,1003.21,VALID,0,VALID,86.1987,VALID,0,VALID,25.0293,VALID,20,VALID,0.562891,
2012-06-15, 02:32:04,VALID,1003.22,VALID,0,VALID,86.0995,VALID,0,VALID,24.9885,VALID,21,VALID,0.277344,
2012-06-15, 02:33:04,VALID,1003.22,VALID,0,VALID,86.1072,VALID,0,VALID,25.0098,VALID,21,VALID,0.688672,
2012-06-15, 02:34:04,VALID,1003.19,VALID,0,VALID,86.0767,VALID,0,VALID,25.0098,VALID,21,VALID,0.613672,
2012-06-15, 02:35:04,VALID,1003.21,VALID,0,VALID,85.7715,VALID,0,VALID,25.0274,VALID,33,VALID,1.2375,
2012-06-15, 02:36:04,VALID,1003.18,VALID,0,VALID,85.6571,VALID,0,VALID,25.1072,VALID,25,VALID,0.353906,
2012-06-15, 02:37:04,VALID,1003.17,VALID,0,VALID,85.6189,VALID,0,VALID,25.0877,VALID,16,VALID,0.716797,
2012-06-15, 02:38:04,VALID,1003.17,VALID,0,VALID,85.8936,VALID,0,VALID,25.0663,VALID,6,VALID,0.374609,
2012-06-15, 02:39:04,VALID,1003.16,VALID,0,VALID,86.1453,VALID,0,VALID,25.0469,VALID,6,VALID,0.201172,
2012-06-15, 02:40:04,VALID,1003.11,VALID,0,VALID,86.4734,VALID,0,VALID,24.9885,VALID,6,VALID,0.289453,
2012-06-15, 02:41:04,VALID,1003.1,VALID,0,VALID,86.6717,VALID,0,VALID,24.9495,VALID,6,VALID,0.264062,
2012-06-15, 02:42:04,VALID,1003.09,VALID,0,VALID,86.8395,VALID,0,VALID,24.8911,VALID,6,VALID,0.41875,
2012-06-15, 02:43:04,VALID,1003.09,VALID,0,VALID,86.9387,VALID,0,VALID,24.8716,VALID,360,VALID,0.283594,
2012-06-15, 02:44:04,VALID,1003.07,VALID,0,VALID,87.1142,VALID,0,VALID,24.8327,VALID,353,VALID,0.571094,
2012-06-15, 02:45:04,VALID,1003.06,VALID,0,VALID,87.1905,VALID,0,VALID,24.8151,VALID,330,VALID,0.35625,
2012-06-15, 02:46:04,VALID,1003.08,VALID,0,VALID,87.2591,VALID,0,VALID,24.7743,VALID,330,VALID,0.015625,
2012-06-15, 02:47:04,VALID,1003.1,VALID,0,VALID,87.3583,VALID,0,VALID,24.7353,VALID,313,VALID,0.581641,
2012-06-15, 02:48:04,VALID,1003.07,VALID,0,VALID,87.3812,VALID,0,VALID,24.6964,VALID,310,VALID,0.113281,
2012-06-15, 02:49:04,VALID,1003.08,VALID,0,VALID,87.5033,VALID,0,VALID,24.6964,VALID,310,VALID,0.208984,
2012-06-15, 02:50:04,VALID,1003.07,VALID,0,VALID,87.6787,VALID,0,VALID,24.638,VALID,310,VALID,0.481641,
2012-06-15, 02:51:04,VALID,1003.07,VALID,0,VALID,87.7855,VALID,0,VALID,24.6185,VALID,339,VALID,0.330469,
2012-06-15, 02:52:04,VALID,1003.07,VALID,0,VALID,87.8542,VALID,0,VALID,24.599,VALID,339,VALID,0.476172,
2012-06-15, 02:53:04,VALID,1003.09,VALID,0,VALID,88.0068,VALID,0,VALID,24.5601,VALID,339,VALID,0.327734,
2012-06-15, 02:54:04,VALID,1003.08,VALID,0,VALID,88.0144,VALID,0,VALID,24.5406,VALID,339,VALID,0.285156,
2012-06-15, 02:55:04,VALID,1003.09,VALID,0,VALID,88.1517,VALID,0,VALID,24.5193,VALID,339,VALID,0.386719,
2012-06-15, 02:56:04,VALID,1003.08,VALID,0,VALID,88.3272,VALID,0,VALID,24.4822,VALID,339,VALID,0.330469,
2012-06-15, 02:57:04,VALID,1003.09,VALID,0,VALID,88.5179,VALID,0,VALID,24.4628,VALID,351,VALID,0.461719,
2012-06-15, 02:58:04,VALID,1003.06,VALID,0,VALID,88.3119,VALID,0,VALID,24.4822,VALID,356,VALID,0.752344,
2012-06-15, 02:59:04,VALID,1003.06,VALID,0,VALID,87.9839,VALID,0,VALID,24.5193,VALID,4,VALID,0.730859,
2012-06-15, 03:00:04,VALID,1003.07,VALID,0,VALID,87.694,VALID,0,VALID,24.5777,VALID,359,VALID,0.848047,
2012-06-15, 03:01:04,VALID,1003.08,VALID,0,VALID,87.3659,VALID,0,VALID,24.6574,VALID,353,VALID,0.783203,
2012-06-15, 03:02:04,VALID,1003.04,VALID,0,VALID,87.076,VALID,0,VALID,24.6964,VALID,14,VALID,0.861328,
2012-06-15, 03:03:04,VALID,1003.04,VALID,0,VALID,86.9616,VALID,0,VALID,24.6964,VALID,10,VALID,0.739844,
2012-06-15, 03:04:04,VALID,1003.03,VALID,0,VALID,86.9387,VALID,0,VALID,24.6945,VALID,348,VALID,1.16484,
2012-06-15, 03:05:04,VALID,1003.02,VALID,0,VALID,86.7251,VALID,0,VALID,24.7548,VALID,16,VALID,1.03984,
2012-06-15, 03:06:04,VALID,1003.04,VALID,0,VALID,86.3055,VALID,0,VALID,24.8327,VALID,355,VALID,0.685938,
2012-06-15, 03:07:04,VALID,1003.02,VALID,0,VALID,85.9241,VALID,0,VALID,24.8911,VALID,351,VALID,0.850391,
2012-06-15, 03:08:04,VALID,1003,VALID,0,VALID,85.5274,VALID,0,VALID,24.9476,VALID,360,VALID,0.700781,
2012-06-15, 03:09:04,VALID,1003,VALID,0,VALID,85.1536,VALID,0,VALID,25.0663,VALID,352,VALID,1.26484,
2012-06-15, 03:10:04,VALID,1002.98,VALID,0,VALID,84.8637,VALID,0,VALID,25.0839,VALID,356,VALID,1.15898,
2012-06-15, 03:11:04,VALID,1002.97,VALID,0,VALID,84.8484,VALID,0,VALID,25.1461,VALID,352,VALID,1.10312,
2012-06-15, 03:12:04,VALID,1002.92,VALID,0,VALID,84.6577,VALID,0,VALID,25.1851,VALID,352,VALID,1.18789,
2012-06-15, 03:13:04,VALID,1002.95,VALID,0,VALID,84.383,VALID,0,VALID,25.2027,VALID,340,VALID,1.02695,
2012-06-15, 03:14:04,VALID,1002.93,VALID,0,VALID,84.261,VALID,0,VALID,25.2435,VALID,349,VALID,0.820313,
2012-06-15, 03:15:04,VALID,1002.95,VALID,0,VALID,84.1847,VALID,0,VALID,25.2397,VALID,341,VALID,0.926953,
2012-06-15, 03:16:04,VALID,1002.93,VALID,0,VALID,84.1542,VALID,0,VALID,25.2416,VALID,348,VALID,0.776953,
2012-06-15, 03:17:04,VALID,1002.93,VALID,0,VALID,84.1313,VALID,0,VALID,25.2416,VALID,308,VALID,0.903516,
2012-06-15, 03:18:04,VALID,1002.95,VALID,0,VALID,84.1389,VALID,0,VALID,25.2825,VALID,341,VALID,1.29102,
2012-06-15, 03:19:04,VALID,1002.93,VALID,0,VALID,84.2,VALID,0,VALID,25.2416,VALID,333,VALID,0.526563,
2012-06-15, 03:20:04,VALID,1002.91,VALID,0,VALID,84.3907,VALID,0,VALID,25.2221,VALID,359,VALID,1.16211,
2012-06-15, 03:21:04,VALID,1002.94,VALID,0,VALID,84.4517,VALID,0,VALID,25.1832,VALID,341,VALID,0.455078,
2012-06-15, 03:22:04,VALID,1002.94,VALID,0,VALID,84.7187,VALID,0,VALID,25.1656,VALID,344,VALID,1.08398,
2012-06-15, 03:23:04,VALID,1002.94,VALID,0,VALID,84.9781,VALID,0,VALID,25.0644,VALID,317,VALID,1.04688,
2012-06-15, 03:24:04,VALID,1002.92,VALID,0,VALID,85.1307,VALID,0,VALID,25.0663,VALID,332,VALID,0.944922,
2012-06-15, 03:25:04,VALID,1002.9,VALID,0,VALID,85.1459,VALID,0,VALID,25.0663,VALID,345,VALID,0.833594,
2012-06-15, 03:26:04,VALID,1002.91,VALID,0,VALID,85.1841,VALID,0,VALID,25.045,VALID,337,VALID,1.2082,
2012-06-15, 03:27:04,VALID,1002.91,VALID,0,VALID,85.0773,VALID,0,VALID,25.0663,VALID,323,VALID,0.932031,
2012-06-15, 03:28:04,VALID,1002.9,VALID,0,VALID,85.1307,VALID,0,VALID,25.0469,VALID,340,VALID,0.865234,
2012-06-15, 03:29:04,VALID,1002.9,VALID,0,VALID,85.1612,VALID,0,VALID,25.0877,VALID,349,VALID,1.03516,
2012-06-15, 03:30:04,VALID,1002.91,VALID,0,VALID,84.9857,VALID,0,VALID,25.1248,VALID,357,VALID,1.25977,
2012-06-15, 03:31:04,VALID,1002.92,VALID,0,VALID,84.7035,VALID,0,VALID,25.1442,VALID,324,VALID,0.972656,
2012-06-15, 03:32:04,VALID,1002.93,VALID,0,VALID,84.6501,VALID,0,VALID,25.1637,VALID,354,VALID,0.6,
2012-06-15, 03:33:04,VALID,1002.94,VALID,0,VALID,84.6195,VALID,0,VALID,25.1637,VALID,329,VALID,0.438281,
2012-06-15, 03:34:04,VALID,1002.94,VALID,0,VALID,84.8026,VALID,0,VALID,25.1248,VALID,335,VALID,0.584766,
2012-06-15, 03:35:04,VALID,1002.95,VALID,0,VALID,84.9171,VALID,0,VALID,25.0858,VALID,335,VALID,0.257813,
2012-06-15, 03:36:04,VALID,1002.94,VALID,0,VALID,85.3443,VALID,0,VALID,25.0255,VALID,342,VALID,0.633984,
2012-06-15, 03:37:04,VALID,1002.93,VALID,0,VALID,85.4129,VALID,0,VALID,25.0079,VALID,342,VALID,0.25625,
2012-06-15, 03:38:04,VALID,1002.94,VALID,0,VALID,85.5579,VALID,0,VALID,24.9885,VALID,345,VALID,0.135937,
2012-06-15, 03:39:04,VALID,1002.94,VALID,0,VALID,85.8096,VALID,0,VALID,24.9282,VALID,352,VALID,0.658984,
2012-06-15, 03:40:04,VALID,1002.93,VALID,0,VALID,86.0156,VALID,0,VALID,24.8892,VALID,349,VALID,0.724219,
2012-06-15, 03:41:04,VALID,1002.92,VALID,0,VALID,86.2216,VALID,0,VALID,24.8716,VALID,350,VALID,0.753125,
2012-06-15, 03:42:04,VALID,1002.94,VALID,0,VALID,86.3666,VALID,0,VALID,24.8522,VALID,349,VALID,0.596094,
2012-06-15, 03:43:04,VALID,1002.93,VALID,0,VALID,86.542,VALID,0,VALID,24.8132,VALID,344,VALID,0.796094,
2012-06-15, 03:44:04,VALID,1002.94,VALID,0,VALID,86.6412,VALID,0,VALID,24.7548,VALID,342,VALID,0.426172,